DW5164 Weather Reports


Display with metric or nautical units.
time (UTC)temp
F
wind
direction
speed
MPH
gust
MPH
rain 1hr
in
rain 24hr
in
rain mn
in
humidity
%
barometer
mb
20260902025929 68 57 0.0 1.0 0.00 0.00 0.00 87 1016.7
20260902025421 68 57 0.0 0.0 0.00 0.00 0.00 87 1016.7
20260902024921 68 57 0.0 0.0 0.00 0.00 0.00 87 1016.7
20260902024422 68 57 0.0 0.0 0.00 0.00 0.00 87 1016.7
20260902023921 69 57 0.0 2.0 0.00 0.00 0.00 87 1016.7
20260902023422 69 57 0.0 0.0 0.00 0.00 0.00 86 1016.7
20260902022925 69 57 0.0 2.0 0.00 0.00 0.00 86 1016.7
20260902022421 69 57 0.0 2.0 0.00 0.00 0.00 86 1016.7
20260902021922 69 57 0.0 1.0 0.00 0.00 0.00 86 1016.7
20260902020922 69 57 0.0 2.0 0.00 0.00 0.00 86 1016.8
20260902020423 68 57 1.0 2.0 0.00 0.00 0.00 86 1016.7
20260902015922 68 57 1.0 2.0 0.00 0.00 0.00 86 1016.7
20260902015421 69 57 1.0 2.0 0.00 0.00 0.00 86 1016.7
20260902014923 69 57 0.0 2.0 0.00 0.00 0.00 86 1016.7
20260902013922 69 57 0.0 0.0 0.00 0.00 0.00 85 1016.7
20260902012921 69 57 0.0 0.0 0.00 0.00 0.00 85 1016.7
20260902012422 69 57 1.0 2.0 0.00 0.00 0.00 85 1016.7
20260902011922 69 57 0.0 2.0 0.00 0.00 0.00 85 1016.7
20260902011422 69 57 0.0 0.0 0.00 0.00 0.00 84 1016.6
20260902010922 70 57 0.0 0.0 0.00 0.00 0.00 83 1016.7
20260902005921 70 57 2.0 3.0 0.00 0.00 0.00 83 1016.6
20260902005428 70 57 1.0 2.0 0.00 0.00 0.00 83 1016.6
20260902004921 70 57 1.0 2.0 0.00 0.00 0.00 83 1016.6
20260902004422 70 57 0.0 0.0 0.00 0.00 0.00 83 1016.6
20260902003424 70 57 1.0 2.0 0.00 0.00 0.00 82 1016.6
20260902002923 70 57 2.0 3.0 0.00 0.00 0.00 82 1016.6
20260902002421 71 57 1.0 3.0 0.00 0.00 0.00 81 1016.5
20260902001922 71 57 0.0 1.0 0.00 0.00 0.00 81 1016.5
20260902000921 71 57 1.0 3.0 0.00 0.00 0.00 81 1016.6
20260902000421 71 57 1.0 2.0 0.00 0.00 0.00 80 1016.7
20260901235420 70 57 3.0 3.0 0.00 0.00 0.00 81 1016.7
20260901234439 71 57 0.0 2.0 0.00 0.00 0.00 80 1016.6
20260901233421 71 59 2.0 3.0 0.00 0.00 0.00 82 1016.6
20260901231921 71 92 1.0 3.0 0.00 0.00 0.00 81 1016.6
20260901231422 71 92 2.0 5.0 0.00 0.00 0.00 81 1016.6
20260901230921 71 92 2.0 3.0 0.00 0.00 0.00 81 1016.5
20260901225420 71 88 2.0 5.0 0.00 0.00 0.00 82 1016.5
20260901224920 71 88 2.0 5.0 0.00 0.00 0.00 82 1016.5
20260901224421 71 80 2.0 5.0 0.00 0.00 0.00 82 1016.5
20260901223921 71 80 2.0 3.0 0.00 0.00 0.00 81 1016.5
20260901223422 72 67 2.0 3.0 0.00 0.00 0.00 80 1016.5
20260901222922 72 62 2.0 3.0 0.00 0.00 0.00 81 1016.6
20260901222422 72 40 2.0 3.0 0.00 0.00 0.00 80 1016.5
20260901221921 72 40 2.0 3.0 0.00 0.00 0.00 80 1016.5
20260901221421 72 38 2.0 3.0 0.00 0.00 0.00 79 1016.5
20260901220921 72 58 3.0 3.0 0.00 0.00 0.00 79 1016.5
20260901220422 72 43 3.0 5.0 0.00 0.00 0.00 79 1016.4
20260901215921 73 44 2.0 3.0 0.00 0.00 0.00 78 1016.4
20260901215436 73 44 3.0 5.0 0.00 0.00 0.00 79 1016.5
20260901214920 73 30 1.0 3.0 0.00 0.00 0.00 79 1016.5
20260901213421 73 71 1.0 3.0 0.00 0.00 0.00 78 1016.4
20260901212925 73 71 1.0 2.0 0.00 0.00 0.00 77 1016.4
20260901212424 73 71 2.0 3.0 0.00 0.00 0.00 78 1016.4
20260901211921 74 96 0.0 0.0 0.00 0.00 0.00 78 1016.4
20260901210922 74 96 1.0 2.0 0.00 0.00 0.00 77 1016.4
20260901210437 74 96 0.0 2.0 0.00 0.00 0.00 77 1016.4
20260901205423 74 96 1.0 2.0 0.00 0.00 0.00 76 1016.4
20260901204920 74 95 1.0 3.0 0.00 0.00 0.00 77 1016.4
20260901204422 74 86 1.0 3.0 0.00 0.00 0.00 77 1016.4
20260901203422 75 122 1.0 2.0 0.00 0.00 0.00 76 1016.4
20260901202921 75 122 2.0 3.0 0.00 0.00 0.00 75 1016.3
20260901202421 75 94 2.0 3.0 0.00 0.00 0.00 75 1016.3
20260901201920 75 84 1.0 2.0 0.00 0.00 0.00 76 1016.2
20260901201421 75 84 1.0 3.0 0.00 0.00 0.00 76 1016.3
20260901200420 76 84 2.0 3.0 0.00 0.00 0.00 75 1016.2
20260901195921 76 98 1.0 3.0 0.00 0.00 0.00 75 1016.2
20260901195420 76 107 1.0 2.0 0.00 0.00 0.00 74 1016.2
20260901194920 76 107 1.0 3.0 0.00 0.00 0.00 73 1016.2
20260901194420 77 107 2.0 3.0 0.00 0.00 0.00 72 1016.1
20260901193920 77 93 2.0 5.0 0.00 0.00 0.00 71 1016.1
20260901193420 77 96 3.0 6.0 0.00 0.00 0.00 71 1016.0
20260901192921 77 78 2.0 5.0 0.00 0.00 0.00 71 1016.0
20260901192420 77 85 2.0 3.0 0.00 0.00 0.00 71 1016.0
20260901191920 77 72 3.0 5.0 0.00 0.00 0.00 71 1016.0
20260901190921 78 90 3.0 5.0 0.00 0.00 0.00 70 1015.9
20260901190420 78 95 3.0 7.0 0.00 0.00 0.00 70 1015.8
20260901185920 78 85 4.0 7.0 0.00 0.00 0.00 70 1015.8
20260901184920 78 89 3.0 6.0 0.00 0.00 0.00 69 1015.7
20260901184420 78 88 2.0 5.0 0.00 0.00 0.00 69 1015.6
20260901183921 79 69 3.0 5.0 0.00 0.00 0.00 67 1015.6
20260901183422 79 70 3.0 3.0 0.00 0.00 0.00 67 1015.6
20260901182920 79 71 3.0 7.0 0.00 0.00 0.00 67 1015.6
20260901181920 79 63 5.0 7.0 0.00 0.00 0.00 66 1015.4
20260901181419 79 68 4.0 7.0 0.00 0.00 0.00 66 1015.3
20260901180920 80 66 3.0 7.0 0.00 0.00 0.00 66 1015.2
20260901180420 80 68 4.0 7.0 0.00 0.00 0.00 65 1015.2
20260901175420 80 69 4.0 7.0 0.00 0.00 0.00 65 1015.1
20260901174421 81 59 5.0 6.0 0.00 0.00 0.00 65 1015.1
20260901173919 81 71 3.0 6.0 0.00 0.00 0.00 65 1015.2
20260901173420 81 84 5.0 8.0 0.00 0.00 0.00 65 1015.1
20260901172920 82 79 4.0 8.0 0.00 0.00 0.00 64 1015.0
20260901172421 82 78 3.0 7.0 0.00 0.00 0.00 64 1015.1
20260901171920 82 68 3.0 6.0 0.00 0.00 0.00 64 1015.0
20260901171422 82 79 4.0 7.0 0.00 0.00 0.00 64 1014.9
20260901170924 83 79 3.0 9.0 0.00 0.00 0.00 64 1014.9
20260901170422 83 94 4.0 7.0 0.00 0.00 0.00 64 1014.8
20260901165435 84 82 7.0 10.0 0.00 0.00 0.00 63 1014.9
20260901164920 84 95 6.0 9.0 0.00 0.00 0.00 64 1014.9
20260901163419 84 85 4.0 9.0 0.00 0.00 0.00 65 1014.9
20260901162919 85 86 5.0 9.0 0.00 0.00 0.00 64 1015.0
20260901162419 85 75 6.0 12.0 0.00 0.00 0.00 64 1015.0
20260901161919 85 105 8.0 12.0 0.00 0.00 0.00 63 1015.0
20260901161419 85 94 6.0 12.0 0.00 0.00 0.00 63 1014.9
20260901160419 85 96 7.0 12.0 0.00 0.00 0.00 63 1014.9
20260901155923 86 80 6.0 12.0 0.00 0.00 0.00 63 1014.9
20260901155419 85 82 9.0 13.0 0.00 0.00 0.00 63 1015.0
20260901154919 86 86 7.0 13.0 0.00 0.00 0.00 62 1015.0
20260901154420 86 82 6.0 12.0 0.00 0.00 0.00 63 1015.0
20260901153919 86 94 3.0 12.0 0.00 0.00 0.00 62 1015.1
20260901153420 86 73 6.0 10.0 0.00 0.00 0.00 61 1015.0
20260901152922 86 95 7.0 10.0 0.00 0.00 0.00 63 1015.1
20260901152419 86 84 7.0 12.0 0.00 0.00 0.00 62 1015.1
20260901150920 87 110 7.0 12.0 0.00 0.00 0.00 61 1015.1
20260901150419 87 111 6.0 15.0 0.00 0.00 0.00 63 1015.1
20260901145920 87 124 7.0 12.0 0.00 0.00 0.00 62 1015.0
20260901145420 87 106 7.0 13.0 0.00 0.00 0.00 63 1015.0
20260901144921 87 98 9.0 15.0 0.00 0.00 0.00 62 1015.0
20260901144420 87 76 8.0 15.0 0.00 0.00 0.00 63 1015.1
20260901143919 87 72 6.0 12.0 0.00 0.00 0.00 61 1015.1
20260901143420 87 78 10.0 15.0 0.00 0.00 0.00 62 1015.2
20260901142420 86 106 7.0 12.0 0.00 0.00 0.00 63 1015.2
20260901141919 86 91 9.0 13.0 0.00 0.00 0.00 64 1015.2
20260901141419 86 99 8.0 17.0 0.00 0.00 0.00 63 1015.3
20260901140920 86 86 9.0 16.0 0.00 0.00 0.00 63 1015.3
20260901140419 86 76 8.0 15.0 0.00 0.00 0.00 65 1015.3
20260901135919 86 71 5.0 9.0 0.00 0.00 0.00 64 1015.3
20260901134919 87 90 11.0 16.0 0.00 0.00 0.00 61 1015.4
20260901134419 88 83 9.0 14.0 0.00 0.00 0.00 61 1015.4
20260901133920 88 111 7.0 13.0 0.00 0.00 0.00 63 1015.4
20260901133419 87 95 6.0 9.0 0.00 0.00 0.00 63 1015.5
20260901132919 87 83 9.0 13.0 0.00 0.00 0.00 61 1015.6
20260901132420 87 107 7.0 12.0 0.00 0.00 0.00 61 1015.6
20260901131919 87 102 6.0 13.0 0.00 0.00 0.00 63 1015.7
20260901131420 86 57 7.0 12.0 0.00 0.00 0.00 62 1015.7
20260901130919 86 102 7.0 13.0 0.00 0.00 0.00 64 1015.8
20260901130418 87 104 7.0 14.0 0.00 0.00 0.00 63 1015.8
20260901125419 87 102 7.0 12.0 0.00 0.00 0.00 63 1015.9
20260901124919 87 96 9.0 14.0 0.00 0.00 0.00 61 1016.0
20260901124434 87 93 7.0 13.0 0.00 0.00 0.00 62 1016.0
20260901123920 87 109 6.0 14.0 0.00 0.00 0.00 61 1016.0
20260901123430 86 96 9.0 14.0 0.00 0.00 0.00 64 1016.0
20260901122919 86 81 5.0 10.0 0.00 0.00 0.00 64 1016.0
20260901122420 86 114 10.0 14.0 0.00 0.00 0.00 62 1016.0
20260901121419 86 83 10.0 17.0 0.00 0.00 0.00 61 1016.0
20260901120934 86 73 8.0 14.0 0.00 0.00 0.00 62 1016.1
20260901120418 86 88 10.0 16.0 0.00 0.00 0.00 62 1016.2
20260901115419 86 80 8.0 13.0 0.00 0.00 0.00 61 1016.2
20260901114919 86 86 7.0 14.0 0.00 0.00 0.00 60 1016.2
20260901114419 86 96 10.0 15.0 0.00 0.00 0.00 60 1016.2
20260901113419 86 86 8.0 14.0 0.00 0.00 0.00 60 1016.3
20260901111421 86 104 6.0 15.0 0.00 0.00 0.00 60 1016.3
20260901110935 86 106 10.0 20.0 0.00 0.00 0.00 60 1016.3
20260901105419 85 90 10.0 16.0 0.00 0.00 0.00 59 1016.3
20260901104919 85 82 11.0 16.0 0.00 0.00 0.00 61 1016.3
20260901104419 86 98 9.0 17.0 0.00 0.00 0.00 61 1016.3
20260901102920 85 84 8.0 13.0 0.00 0.00 0.00 63 1016.3
20260901102434 85 69 10.0 18.0 0.00 0.00 0.00 63 1016.4
20260901101918 85 60 9.0 17.0 0.00 0.00 0.00 63 1016.4
20260901100919 85 85 9.0 14.0 0.00 0.00 0.00 64 1016.4
20260901100418 85 81 9.0 13.0 0.00 0.00 0.00 62 1016.4
20260901095919 85 90 11.0 20.0 0.00 0.00 0.00 61 1016.4
20260901095420 85 70 10.0 17.0 0.00 0.00 0.00 62 1016.5
20260901094919 84 73 10.0 16.0 0.00 0.00 0.00 61 1016.5
20260901094424 84 83 10.0 17.0 0.00 0.00 0.00 60 1016.5
20260901093921 84 69 9.0 15.0 0.00 0.00 0.00 59 1016.6
20260901093418 84 90 7.0 14.0 0.00 0.00 0.00 63 1016.6
20260901092919 84 98 8.0 16.0 0.00 0.00 0.00 61 1016.7
20260901092419 84 77 8.0 14.0 0.00 0.00 0.00 62 1016.7
20260901091419 83 77 9.0 15.0 0.00 0.00 0.00 61 1016.7
20260901090919 83 77 7.0 13.0 0.00 0.00 0.00 63 1016.8
20260901090418 82 73 9.0 15.0 0.00 0.00 0.00 62 1016.8
20260901085919 81 89 9.0 13.0 0.00 0.00 0.00 64 1016.9
20260901085418 81 75 8.0 17.0 0.00 0.00 0.00 65 1016.9
20260901084921 80 86 9.0 14.0 0.00 0.00 0.00 64 1016.9
20260901083920 80 79 9.0 14.0 0.00 0.00 0.00 63 1016.8
20260901083421 81 76 9.0 16.0 0.00 0.00 0.00 63 1016.8
20260901082418 81 88 10.0 16.0 0.00 0.00 0.00 63 1016.8
20260901081918 80 95 10.0 17.0 0.00 0.00 0.00 63 1016.7
20260901081419 80 79 9.0 16.0 0.00 0.00 0.00 63 1016.7
20260901080919 80 87 7.0 12.0 0.00 0.00 0.00 65 1016.6
20260901080419 80 73 6.0 12.0 0.00 0.00 0.00 68 1016.6
20260901075918 80 65 8.0 13.0 0.00 0.00 0.00 66 1016.6
20260901075418 79 60 6.0 12.0 0.00 0.00 0.00 68 1016.5
20260901074918 79 73 8.0 13.0 0.00 0.00 0.00 71 1016.5
20260901074418 78 55 4.0 8.0 0.00 0.00 0.00 71 1016.4
20260901073418 77 46 4.0 8.0 0.00 0.00 0.00 73 1016.3
20260901072918 77 43 4.0 8.0 0.00 0.00 0.00 74 1016.3
20260901072418 76 69 3.0 7.0 0.00 0.00 0.00 74 1016.3
20260901071918 76 58 3.0 5.0 0.00 0.00 0.00 77 1016.3
20260901070918 75 77 4.0 6.0 0.00 0.00 0.00 77 1016.2
20260901070418 75 70 2.0 7.0 0.00 0.00 0.00 78 1016.2
20260901065918 75 24 2.0 8.0 0.00 0.00 0.00 77 1016.2
20260901065417 75 75 4.0 10.0 0.00 0.00 0.00 76 1016.1
20260901064418 74 47 5.0 10.0 0.00 0.00 0.00 76 1016.0
20260901063918 74 73 5.0 12.0 0.00 0.00 0.00 75 1016.0
20260901062918 73 57 5.0 8.0 0.00 0.00 0.00 76 1016.0
20260901062418 73 69 5.0 8.0 0.00 0.00 0.00 77 1015.9
20260901061917 73 70 7.0 12.0 0.00 0.00 0.00 77 1015.9
20260901061418 73 65 5.0 9.0 0.00 0.00 0.00 77 1015.9
20260901060918 73 70 4.0 8.0 0.00 0.00 0.00 78 1015.8
20260901060418 73 69 4.0 7.0 0.00 0.00 0.00 78 1015.9
20260901055918 73 63 3.0 5.0 0.00 0.00 0.00 78 1015.8
20260901055418 72 68 4.0 7.0 0.00 0.00 0.00 78 1015.8
20260901054918 72 71 4.0 8.0 0.00 0.00 0.00 78 1015.8
20260901054418 72 86 4.0 8.0 0.00 0.00 0.00 80 1015.7
20260901053918 72 107 3.0 7.0 0.00 0.00 0.00 81 1015.7
20260901053418 71 102 3.0 6.0 0.00 0.00 0.00 82 1015.7
20260901052918 71 89 3.0 7.0 0.00 0.00 0.00 84 1015.7
20260901052418 71 87 2.0 7.0 0.00 0.00 0.00 85 1015.6
20260901051918 71 91 2.0 6.0 0.00 0.00 0.00 86 1015.6
20260901051418 71 97 2.0 3.0 0.00 0.00 0.00 87 1015.6
20260901050919 71 159 1.0 3.0 0.00 0.00 0.00 87 1015.6
20260901050419 71 159 1.0 3.0 0.00 0.00 0.00 88 1015.5
20260901045918 71 159 1.0 2.0 0.00 0.00 0.00 88 1015.5
20260901045418 70 159 1.0 3.0 0.00 0.00 0.00 89 1015.5
20260901044917 70 159 2.0 3.0 0.00 0.00 0.00 89 1015.4
20260901044417 70 167 0.0 2.0 0.00 0.00 0.00 90 1015.3
20260901043919 70 182 1.0 2.0 0.00 0.00 0.00 90 1015.3
20260901043418 70 194 0.0 3.0 0.00 0.00 0.00 90 1015.3
20260901042917 70 184 1.0 3.0 0.00 0.00 0.00 90 1015.3
20260901042419 70 203 2.0 3.0 0.00 0.00 0.00 90 1015.2
20260901041918 71 199 0.0 3.0 0.00 0.00 0.00 90 1015.1
20260901040918 71 149 1.0 3.0 0.00 0.00 0.00 91 1015.2
20260901040417 70 128 1.0 3.0 0.00 0.00 0.00 91 1015.0
20260901035917 71 67 0.0 1.0 0.00 0.00 0.00 91 1015.0
20260901034418 71 67 1.0 2.0 0.00 0.00 0.00 90 1014.7
20260901033917 71 67 1.0 3.0 0.00 0.00 0.00 90 1014.6
20260901033417 71 67 2.0 3.0 0.00 0.00 0.00 89 1014.6
20260901032918 72 68 1.0 3.0 0.00 0.00 0.00 89 1014.6
20260901032418 72 69 2.0 3.0 0.00 0.00 0.00 89 1014.6
20260901031418 72 75 3.0 5.0 0.00 0.00 0.00 88 1014.5
20260901030918 72 55 3.0 6.0 0.00 0.00 0.00 88 1014.5
20260901030417 72 81 3.0 7.0 0.00 0.00 0.00 88 1014.5